| time (UTC) | temp F | wind direction | speed knots | gust knots | rain 1hr in | rain 24hr in | rain mn in | humidity % | barometer mb |
| 20260509031935 | 56 | 212 | 0.0 | 4.3 | 0.00 | 0.00 | 0.00 | 90 | 1007.5 |
| 20260509030935 | 56 | 212 | 0.9 | 6.1 | 0.00 | 0.00 | 0.00 | 90 | 1007.5 |
| 20260509025935 | 56 | 264 | 1.7 | 4.3 | 0.00 | 0.00 | 0.00 | 90 | 1007.5 |
| 20260509024935 | 56 | 217 | 0.0 | 6.1 | 0.00 | 0.00 | 0.00 | 90 | 1007.6 |
| 20260509023935 | 57 | 220 | 0.9 | 5.2 | 0.00 | 0.00 | 0.00 | 89 | 1007.6 |
| 20260509022935 | 57 | 208 | 0.9 | 5.2 | 0.00 | 0.00 | 0.00 | 89 | 1007.6 |
| 20260509020935 | 57 | 213 | 0.0 | 4.3 | 0.00 | 0.00 | 0.00 | 88 | 1007.6 |
| 20260509015935 | 57 | 217 | 0.0 | 4.3 | 0.00 | 0.00 | 0.00 | 87 | 1007.6 |
| 20260509014935 | 57 | 222 | 0.0 | 0.0 | 0.00 | 0.00 | 0.00 | 86 | 1007.5 |
| 20260509012935 | 58 | 222 | 0.0 | 0.0 | 0.00 | 0.01 | 0.00 | 84 | 1007.5 |
| 20260509011935 | 58 | 222 | 0.0 | 0.0 | 0.00 | 0.01 | 0.00 | 84 | 1007.4 |
| 20260509010935 | 58 | 222 | 0.0 | 5.2 | 0.00 | 0.01 | 0.00 | 83 | 1007.5 |
| 20260509005935 | 59 | 170 | 0.0 | 2.6 | 0.00 | 0.01 | 0.00 | 82 | 1007.5 |
| 20260509004935 | 59 | 157 | 0.0 | 5.2 | 0.00 | 0.01 | 0.00 | 82 | 1007.4 |
| 20260509003935 | 59 | 179 | 0.9 | 7.0 | 0.00 | 0.01 | 0.00 | 82 | 1007.3 |
| 20260509002935 | 60 | 236 | 1.7 | 5.2 | 0.00 | 0.01 | 0.00 | 80 | 1007.2 |
| 20260509001935 | 61 | 275 | 0.9 | 2.6 | 0.00 | 0.01 | 0.00 | 79 | 1007.2 |
| 20260509000935 | 61 | 138 | 0.9 | 5.2 | 0.00 | 0.01 | 0.00 | 77 | 1007.4 |
| 20260508235935 | 61 | 189 | 0.0 | 4.3 | 0.00 | 0.01 | 0.00 | 77 | 1007.3 |
| 20260508234935 | 62 | 176 | 0.0 | 4.3 | 0.00 | 0.01 | 0.00 | 76 | 1007.4 |
| 20260508233935 | 62 | 157 | 0.0 | 5.2 | 0.00 | 0.01 | 0.00 | 75 | 1007.3 |
| 20260508231935 | 62 | 260 | 0.9 | 5.2 | 0.00 | 0.01 | 0.00 | 74 | 1007.5 |
| 20260508230935 | 62 | 175 | 0.9 | 5.2 | 0.00 | 0.01 | 0.00 | 74 | 1007.5 |
| 20260508225935 | 63 | 289 | 0.9 | 5.2 | 0.00 | 0.01 | 0.00 | 73 | 1007.6 |
| 20260508224935 | 63 | 225 | 1.7 | 6.1 | 0.00 | 0.01 | 0.00 | 73 | 1007.7 |
| 20260508223935 | 63 | 288 | 0.0 | 7.0 | 0.00 | 0.01 | 0.00 | 73 | 1007.7 |
| 20260508222936 | 63 | 270 | 1.7 | 6.1 | 0.00 | 0.01 | 0.00 | 72 | 1007.8 |
| 20260508221935 | 63 | 277 | 3.5 | 7.8 | 0.00 | 0.01 | 0.00 | 71 | 1007.9 |
| 20260508220935 | 63 | 293 | 1.7 | 6.1 | 0.00 | 0.01 | 0.00 | 71 | 1007.8 |
| 20260508215935 | 63 | 263 | 0.9 | 7.8 | 0.00 | 0.01 | 0.00 | 70 | 1007.8 |
| 20260508214935 | 63 | 265 | 1.7 | 6.1 | 0.00 | 0.01 | 0.00 | 70 | 1007.9 |
| 20260508213935 | 63 | 185 | 4.3 | 7.8 | 0.00 | 0.01 | 0.00 | 68 | 1008.0 |
| 20260508210936 | 63 | 281 | 1.7 | 6.1 | 0.00 | 0.01 | 0.00 | 68 | 1008.2 |
| 20260508204936 | 64 | 251 | 3.5 | 7.0 | 0.00 | 0.01 | 0.00 | 66 | 1008.2 |
| 20260508203936 | 64 | 276 | 1.7 | 7.0 | 0.00 | 0.01 | 0.00 | 67 | 1008.3 |
| 20260508202935 | 64 | 293 | 4.3 | 7.0 | 0.00 | 0.01 | 0.00 | 67 | 1008.4 |
| 20260508201936 | 64 | 287 | 2.6 | 7.8 | 0.00 | 0.01 | 0.00 | 66 | 1008.5 |
| 20260508200935 | 65 | 260 | 2.6 | 8.7 | 0.00 | 0.01 | 0.00 | 66 | 1008.6 |
| 20260508195935 | 65 | 261 | 1.7 | 7.0 | 0.00 | 0.01 | 0.00 | 65 | 1008.7 |
| 20260508194936 | 65 | 207 | 2.6 | 7.8 | 0.00 | 0.01 | 0.00 | 67 | 1009.0 |
| 20260508193935 | 65 | 250 | 1.7 | 10.4 | 0.00 | 0.01 | 0.00 | 66 | 1008.9 |
| 20260508192935 | 65 | 282 | 4.3 | 7.8 | 0.00 | 0.01 | 0.00 | 65 | 1009.2 |
| 20260508191936 | 66 | 228 | 5.2 | 11.3 | 0.00 | 0.01 | 0.00 | 66 | 1009.2 |
| 20260508190936 | 66 | 296 | 4.3 | 7.8 | 0.00 | 0.01 | 0.00 | 65 | 1009.6 |
| 20260508184935 | 65 | 251 | 1.7 | 7.0 | 0.00 | 0.01 | 0.00 | 64 | 1009.7 |
| 20260508183936 | 65 | 195 | 0.9 | 7.0 | 0.00 | 0.01 | 0.00 | 62 | 1009.9 |
| 20260508181935 | 65 | 255 | 2.6 | 7.0 | 0.00 | 0.01 | 0.00 | 60 | 1010.0 |
| 20260508180936 | 65 | 202 | 1.7 | 6.1 | 0.00 | 0.01 | 0.00 | 63 | 1010.2 |
| 20260508175936 | 64 | 237 | 1.7 | 7.0 | 0.00 | 0.01 | 0.00 | 63 | 1010.3 |
| 20260508174936 | 64 | 272 | 0.9 | 6.1 | 0.00 | 0.01 | 0.00 | 68 | 1010.5 |
| 20260508172936 | 64 | 235 | 0.9 | 5.2 | 0.00 | 0.01 | 0.00 | 66 | 1010.7 |
| 20260508171936 | 64 | 272 | 0.9 | 8.7 | 0.00 | 0.01 | 0.00 | 65 | 1010.8 |
| 20260508170936 | 63 | 263 | 0.0 | 7.0 | 0.00 | 0.01 | 0.00 | 64 | 1010.9 |
| 20260508164935 | 63 | 253 | 2.6 | 7.8 | 0.00 | 0.01 | 0.00 | 61 | 1011.2 |
| 20260508163935 | 63 | 253 | 1.7 | 6.1 | 0.00 | 0.01 | 0.00 | 59 | 1011.3 |
| 20260508161935 | 62 | 260 | 3.5 | 6.1 | 0.00 | 0.01 | 0.00 | 70 | 1011.5 |
| 20260508160935 | 60 | 261 | 0.9 | 6.1 | 0.00 | 0.01 | 0.00 | 72 | 1011.5 |
| 20260508155936 | 60 | 285 | 2.6 | 7.0 | 0.00 | 0.01 | 0.00 | 75 | 1011.7 |
| 20260508154936 | 60 | 161 | 0.0 | 6.1 | 0.00 | 0.01 | 0.00 | 75 | 1011.3 |
| 20260508153936 | 59 | 178 | 0.0 | 5.2 | 0.00 | 0.01 | 0.00 | 78 | 1011.4 |
| 20260508152936 | 58 | 186 | 1.7 | 5.2 | 0.00 | 0.01 | 0.00 | 80 | 1011.4 |
| 20260508151936 | 58 | 286 | 1.7 | 6.1 | 0.00 | 0.01 | 0.00 | 79 | 1011.5 |
| 20260508150936 | 57 | 209 | 2.6 | 6.1 | 0.00 | 0.01 | 0.00 | 82 | 1011.4 |
| 20260508145936 | 56 | 47 | 2.6 | 7.0 | 0.00 | 0.01 | 0.00 | 83 | 1011.7 |
| 20260508144936 | 56 | 261 | 2.6 | 7.0 | 0.00 | 0.01 | 0.00 | 83 | 1011.8 |
| 20260508143936 | 55 | 283 | 1.7 | 7.0 | 0.00 | 0.01 | 0.00 | 86 | 1011.8 |
| 20260508142936 | 54 | 295 | 0.9 | 6.1 | 0.00 | 0.01 | 0.00 | 87 | 1011.8 |
| 20260508141936 | 54 | 263 | 0.9 | 6.1 | 0.00 | 0.01 | 0.00 | 87 | 1011.8 |
| 20260508140936 | 54 | 184 | 0.9 | 6.1 | 0.00 | 0.01 | 0.00 | 88 | 1012.1 |
| 20260508134936 | 54 | 193 | 0.9 | 4.3 | 0.00 | 0.01 | 0.00 | 85 | 1011.8 |
| 20260508133936 | 54 | 220 | 0.0 | 5.2 | 0.00 | 0.01 | 0.00 | 86 | 1012.0 |
| 20260508132936 | 53 | 206 | 0.0 | 0.0 | 0.00 | 0.01 | 0.00 | 87 | 1011.9 |
| 20260508131936 | 52 | 206 | 0.0 | 1.7 | 0.00 | 0.01 | 0.00 | 89 | 1012.1 |
| 20260508130936 | 52 | 206 | 0.0 | 0.0 | 0.00 | 0.01 | 0.00 | 89 | 1012.0 |
| 20260508125936 | 52 | 206 | 0.0 | 0.0 | 0.00 | 0.01 | 0.00 | 90 | 1012.0 |
| 20260508124936 | 51 | 206 | 0.0 | 0.0 | 0.00 | 0.01 | 0.00 | 91 | 1012.0 |
| 20260508122936 | 50 | 206 | 0.0 | 0.0 | 0.00 | 0.01 | 0.00 | 91 | 1012.0 |
| 20260508121936 | 49 | 206 | 0.0 | 0.0 | 0.00 | 0.01 | 0.00 | 92 | 1011.9 |
| 20260508120936 | 49 | 206 | 0.0 | 0.0 | 0.00 | 0.01 | 0.00 | 92 | 1011.9 |
| 20260508115937 | 48 | 206 | 0.0 | 0.0 | 0.00 | 0.01 | 0.00 | 93 | 1011.9 |
| 20260508114936 | 48 | 206 | 0.0 | 0.0 | 0.00 | 0.01 | 0.00 | 93 | 1011.9 |
| 20260508113936 | 47 | 206 | 0.0 | 0.0 | 0.00 | 0.01 | 0.00 | 92 | 1011.8 |
| 20260508112936 | 47 | 206 | 0.0 | 0.0 | 0.00 | 0.01 | 0.00 | 92 | 1011.9 |
| 20260508111937 | 47 | 206 | 0.0 | 0.0 | 0.00 | 0.01 | 0.00 | 92 | 1011.7 |
| 20260508110936 | 47 | 206 | 0.0 | 0.0 | 0.00 | 0.01 | 0.00 | 92 | 1011.7 |
| 20260508105936 | 47 | 206 | 0.0 | 0.0 | 0.00 | 0.01 | 0.00 | 92 | 1011.7 |
| 20260508104936 | 47 | 206 | 0.0 | 0.0 | 0.00 | 0.01 | 0.01 | 92 | 1011.7 |
| 20260508103937 | 47 | 206 | 0.0 | 0.0 | 0.00 | 0.01 | 0.01 | 92 | 1011.7 |
| 20260508101936 | 47 | 206 | 0.0 | 0.0 | 0.00 | 0.01 | 0.01 | 92 | 1011.6 |
| 20260508100936 | 47 | 206 | 0.0 | 0.0 | 0.00 | 0.01 | 0.01 | 92 | 1011.5 |
| 20260508095936 | 47 | 206 | 0.0 | 0.0 | 0.00 | 0.01 | 0.01 | 92 | 1011.7 |
| 20260508094936 | 47 | 206 | 0.0 | 0.0 | 0.00 | 0.01 | 0.01 | 92 | 1011.9 |
| 20260508092937 | 47 | 206 | 0.0 | 0.0 | 0.00 | 0.01 | 0.01 | 92 | 1011.7 |
| 20260508091937 | 47 | 206 | 0.0 | 0.0 | 0.00 | 0.01 | 0.01 | 92 | 1011.8 |
| 20260508085937 | 47 | 206 | 0.0 | 0.0 | 0.00 | 0.01 | 0.01 | 92 | 1011.8 |
| 20260508084937 | 47 | 206 | 0.0 | 1.7 | 0.00 | 0.01 | 0.01 | 92 | 1011.6 |
| 20260508083936 | 47 | 178 | 0.0 | 0.0 | 0.00 | 0.01 | 0.01 | 92 | 1011.7 |
| 20260508082937 | 47 | 178 | 0.0 | 0.0 | 0.00 | 0.01 | 0.01 | 92 | 1011.7 |
| 20260508081937 | 47 | 178 | 0.0 | 0.0 | 0.00 | 0.01 | 0.01 | 92 | 1011.8 |
| 20260508080936 | 47 | 178 | 0.0 | 2.6 | 0.00 | 0.01 | 0.01 | 92 | 1011.8 |
| 20260508074937 | 47 | 272 | 0.0 | 0.0 | 0.00 | 0.01 | 0.01 | 92 | 1011.8 |
| 20260508073936 | 47 | 272 | 0.0 | 0.0 | 0.00 | 0.01 | 0.01 | 92 | 1011.8 |
| 20260508071937 | 47 | 272 | 0.0 | 0.0 | 0.00 | 0.01 | 0.01 | 92 | 1011.8 |
| 20260508065936 | 48 | 272 | 0.0 | 6.1 | 0.00 | 0.01 | 0.01 | 92 | 1011.9 |
| 20260508064936 | 48 | 182 | 0.0 | 5.2 | 0.00 | 0.01 | 0.01 | 92 | 1011.9 |
| 20260508063937 | 48 | 246 | 0.0 | 7.0 | 0.00 | 0.01 | 0.01 | 92 | 1011.9 |
| 20260508062936 | 48 | 270 | 1.7 | 6.1 | 0.00 | 0.01 | 0.01 | 92 | 1012.1 |
| 20260508061936 | 48 | 232 | 0.0 | 7.8 | 0.00 | 0.01 | 0.01 | 92 | 1012.1 |
| 20260508060937 | 48 | 311 | 0.0 | 5.2 | 0.00 | 0.01 | 0.01 | 92 | 1012.1 |
| 20260508055937 | 48 | 251 | 0.9 | 5.2 | 0.00 | 0.01 | 0.01 | 92 | 1012.1 |
| 20260508054937 | 48 | 227 | 2.6 | 8.7 | 0.00 | 0.01 | 0.01 | 92 | 1012.2 |
| 20260508053936 | 48 | 195 | 0.0 | 4.3 | 0.00 | 0.01 | 0.01 | 91 | 1012.2 |
| 20260508052937 | 48 | 188 | 0.0 | 0.0 | 0.00 | 0.01 | 0.01 | 91 | 1012.2 |
| 20260508051937 | 48 | 188 | 0.0 | 4.3 | 0.00 | 0.01 | 0.01 | 90 | 1012.3 |
| 20260508050937 | 48 | 267 | 0.0 | 0.0 | 0.00 | 0.01 | 0.01 | 90 | 1012.2 |
| 20260508044937 | 48 | 267 | 0.0 | 0.0 | 0.00 | 0.01 | 0.01 | 90 | 1012.2 |
| 20260508043937 | 48 | 267 | 0.0 | 0.0 | 0.00 | 0.01 | 0.01 | 90 | 1012.3 |
| 20260508042937 | 48 | 267 | 0.0 | 0.0 | 0.00 | 0.01 | 0.01 | 89 | 1012.3 |
| 20260508040937 | 48 | 267 | 0.0 | 0.0 | 0.00 | 0.01 | 0.01 | 90 | 1012.3 |
| 20260508035937 | 48 | 267 | 0.0 | 0.0 | 0.00 | 0.01 | 0.01 | 90 | 1012.3 |
| 20260508033936 | 49 | 267 | 0.9 | 5.2 | 0.00 | 0.01 | 0.01 | 90 | 1012.2 |
| 20260508032937 | 49 | 154 | 0.0 | 5.2 | 0.00 | 0.01 | 0.01 | 89 | 1012.1 |